TimeCDT,TemperatureF,Dew PointF,Humidity,Sea Level PressureIn,VisibilityMPH,Wind Direction,Wind SpeedMPH,Gust SpeedMPH,PrecipitationIn,Events,Conditions,WindDirDegrees,DateUTC
12:12 AM,56.5,53.6,90,29.69,10.0,South,8.1,-,N/A,,Clear,170,2013-05-29 05:12:00
12:32 AM,55.8,53.4,92,29.69,7.0,South,5.8,-,N/A,,Clear,170,2013-05-29 05:32:00
12:51 AM,55.4,53.4,93,29.69,10.0,South,5.8,-,N/A,,Clear,170,2013-05-29 05:51:00
1:12 AM,55.4,53.4,93,29.71,7.0,South,6.9,-,N/A,,Clear,190,2013-05-29 06:12:00
1:32 AM,55.4,53.4,93,29.72,10.0,South,9.2,-,N/A,,Clear,180,2013-05-29 06:32:00
1:51 AM,55.4,53.2,92,29.72,7.0,South,9.2,-,N/A,,Clear,190,2013-05-29 06:51:00
2:12 AM,55.4,53.2,92,29.72,7.0,South,9.2,-,N/A,,Scattered Clouds,180,2013-05-29 07:12:00
2:32 AM,55.6,53.6,93,29.72,7.0,South,8.1,-,N/A,,Mostly Cloudy,190,2013-05-29 07:32:00
2:52 AM,56.1,53.6,91,29.73,5.0,SSW,10.4,-,N/A,,Overcast,200,2013-05-29 07:52:00
3:12 AM,55.9,53.6,92,29.73,7.0,SSW,9.2,-,N/A,,Overcast,200,2013-05-29 08:12:00
3:32 AM,55.9,53.6,92,29.72,7.0,SSW,5.8,16.1,N/A,,Overcast,210,2013-05-29 08:32:00
3:52 AM,55.9,53.6,92,29.72,7.0,SSW,8.1,19.6,N/A,,Overcast,210,2013-05-29 08:52:00
4:12 AM,55.6,53.6,93,29.71,7.0,SSW,6.9,-,N/A,,Overcast,210,2013-05-29 09:12:00
4:32 AM,55.0,53.4,94,29.70,5.0,South,4.6,-,N/A,,Mostly Cloudy,190,2013-05-29 09:32:00
4:52 AM,54.0,52.7,95,29.71,4.0,South,5.8,-,N/A,,Scattered Clouds,170,2013-05-29 09:52:00
5:12 AM,53.8,52.7,96,29.72,4.0,South,4.6,-,N/A,,Mostly Cloudy,170,2013-05-29 10:12:00
5:32 AM,54.0,52.9,96,29.73,3.0,South,5.8,-,N/A,,Overcast,180,2013-05-29 10:32:00
5:52 AM,53.8,52.9,97,29.72,3.0,South,5.8,-,N/A,,Overcast,180,2013-05-29 10:52:00
6:12 AM,54.5,53.4,96,29.72,3.0,South,5.8,-,N/A,,Overcast,190,2013-05-29 11:12:00
6:32 AM,54.5,53.6,97,29.73,3.0,South,5.8,-,N/A,,Scattered Clouds,180,2013-05-29 11:32:00
6:52 AM,55.4,53.8,94,29.73,3.0,South,6.9,-,N/A,,Mostly Cloudy,190,2013-05-29 11:52:00
7:12 AM,55.9,54.1,94,29.73,4.0,South,5.8,-,N/A,,Overcast,190,2013-05-29 12:12:00
7:32 AM,57.4,54.9,91,29.73,4.0,South,4.6,-,N/A,,Mostly Cloudy,180,2013-05-29 12:32:00
7:52 AM,57.9,55.0,90,29.72,5.0,SSE,6.9,-,N/A,,Scattered Clouds,150,2013-05-29 12:52:00
8:12 AM,58.6,54.9,87,29.72,5.0,South,6.9,-,N/A,,Clear,170,2013-05-29 13:12:00
8:32 AM,60.3,55.4,84,29.72,7.0,South,5.8,-,N/A,,Clear,170,2013-05-29 13:32:00
8:52 AM,61.7,55.8,81,29.72,7.0,South,6.9,-,N/A,,Clear,170,2013-05-29 13:52:00
9:12 AM,63.7,55.9,76,29.72,7.0,SSE,8.1,-,N/A,,Clear,150,2013-05-29 14:12:00
9:32 AM,64.6,56.1,74,29.72,7.0,SSE,6.9,-,N/A,,Clear,160,2013-05-29 14:32:00
9:52 AM,66.6,56.5,70,29.72,7.0,South,6.9,-,N/A,,Clear,170,2013-05-29 14:52:00
10:12 AM,69.8,57.2,64,29.72,7.0,SSE,8.1,-,N/A,,Clear,160,2013-05-29 15:12:00
10:32 AM,69.4,56.8,64,29.71,7.0,South,6.9,-,N/A,,Clear,180,2013-05-29 15:32:00
10:52 AM,71.1,57.2,61,29.72,7.0,South,11.5,-,N/A,,Clear,180,2013-05-29 15:52:00
11:12 AM,73.0,57.0,57,29.73,7.0,SSW,9.2,-,N/A,,Clear,200,2013-05-29 16:12:00
11:32 AM,73.9,57.4,56,29.73,7.0,South,17.3,-,N/A,,Clear,170,2013-05-29 16:32:00
11:52 AM,72.0,57.4,60,29.73,10.0,South,13.8,-,N/A,,Clear,170,2013-05-29 16:52:00
12:12 PM,70.5,56.7,61,29.74,10.0,South,15.0,19.6,N/A,,Clear,170,2013-05-29 17:12:00
12:32 PM,70.7,56.5,61,29.73,10.0,SSE,11.5,-,N/A,,Clear,160,2013-05-29 17:32:00
12:52 PM,70.5,56.3,61,29.73,10.0,SSE,12.7,19.6,N/A,,Clear,160,2013-05-29 17:52:00
1:12 PM,70.3,57.4,63,29.71,10.0,SE,8.1,-,N/A,,Clear,140,2013-05-29 18:12:00
1:32 PM,71.1,57.0,61,29.72,7.0,SE,8.1,-,N/A,,Clear,130,2013-05-29 18:32:00
1:52 PM,70.2,56.8,63,29.71,10.0,SE,8.1,-,N/A,,Scattered Clouds,140,2013-05-29 18:52:00
2:12 PM,70.0,57.6,65,29.73,10.0,SE,6.9,-,N/A,,Mostly Cloudy,140,2013-05-29 19:12:00
2:32 PM,68.2,57.2,68,29.75,10.0,South,8.1,-,N/A,Rain,Light Rain,170,2013-05-29 19:32:00
2:52 PM,65.5,59.5,81,29.72,10.0,SE,4.6,-,0.01,Rain,Rain,130,2013-05-29 19:52:00
3:12 PM,65.7,60.3,83,29.71,10.0,SE,6.9,-,N/A,Rain,Light Rain,130,2013-05-29 20:12:00
3:32 PM,65.8,60.6,83,29.73,10.0,South,4.6,-,N/A,,Mostly Cloudy,170,2013-05-29 20:32:00
3:51 PM,66.7,60.1,79,29.74,10.0,SE,3.5,-,N/A,,Mostly Cloudy,130,2013-05-29 20:51:00
4:12 PM,67.1,58.3,73,29.73,10.0,Calm,Calm,-,N/A,,Overcast,0,2013-05-29 21:12:00
4:32 PM,67.5,59.4,75,29.73,10.0,SE,4.6,-,N/A,,Overcast,130,2013-05-29 21:32:00
4:52 PM,67.3,59.4,76,29.72,10.0,ESE,5.8,-,N/A,,Overcast,120,2013-05-29 21:52:00
5:12 PM,68.2,58.6,71,29.71,10.0,SE,6.9,-,N/A,Rain,Light Rain,130,2013-05-29 22:12:00
5:32 PM,68.2,58.3,71,29.70,10.0,SE,8.1,-,N/A,,Mostly Cloudy,130,2013-05-29 22:32:00
5:52 PM,68.0,57.9,70,29.70,10.0,SE,9.2,-,N/A,,Mostly Cloudy,140,2013-05-29 22:52:00
6:12 PM,67.3,57.0,70,29.69,10.0,ESE,8.1,-,N/A,,Mostly Cloudy,110,2013-05-29 23:12:00
6:32 PM,67.1,55.8,67,29.68,10.0,SE,12.7,-,N/A,,Mostly Cloudy,130,2013-05-29 23:32:00
6:52 PM,65.7,55.2,69,29.68,10.0,SE,10.4,-,N/A,,Overcast,130,2013-05-29 23:52:00
7:12 PM,64.4,54.5,70,29.68,10.0,ESE,11.5,-,N/A,,Overcast,110,2013-05-30 00:12:00
7:32 PM,63.3,55.4,75,29.68,10.0,ESE,6.9,-,N/A,Thunderstorm,Overcast,110,2013-05-30 00:32:00
7:52 PM,62.6,56.3,80,29.72,10.0,SW,6.9,-,N/A,,Overcast,230,2013-05-30 00:52:00
8:12 PM,61.3,57.4,87,29.74,5.0,SW,4.6,-,0.03,Rain,Rain,230,2013-05-30 01:12:00
8:32 PM,59.9,58.1,94,29.72,2.5,Calm,Calm,-,0.09,Rain,Heavy Rain,0,2013-05-30 01:32:00
8:52 PM,59.0,58.1,97,29.68,3.0,ENE,6.9,-,0.18,Rain,Rain,60,2013-05-30 01:52:00
9:12 PM,59.0,57.9,96,29.68,7.0,East,6.9,-,0.01,Rain,Light Rain,80,2013-05-30 02:12:00
9:32 PM,58.1,57.2,97,29.68,7.0,ESE,5.8,-,0.01,,Scattered Clouds,110,2013-05-30 02:32:00
9:52 PM,58.1,57.4,97,29.69,5.0,ESE,5.8,-,0.01,,Scattered Clouds,120,2013-05-30 02:52:00
10:12 PM,58.1,57.4,97,29.68,7.0,East,6.9,-,N/A,,Clear,100,2013-05-30 03:12:00
10:32 PM,57.7,57.2,98,29.68,7.0,East,5.8,-,N/A,,Scattered Clouds,80,2013-05-30 03:32:00
10:52 PM,58.1,57.4,97,29.67,10.0,East,5.8,-,N/A,,Overcast,90,2013-05-30 03:52:00
11:12 PM,58.1,57.4,97,29.67,10.0,East,6.9,-,N/A,,Overcast,100,2013-05-30 04:12:00
11:32 PM,57.7,57.2,98,29.66,10.0,ESE,5.8,-,N/A,,Overcast,110,2013-05-30 04:32:00
11:52 PM,58.1,57.2,97,29.67,10.0,East,6.9,-,N/A,,Overcast,100,2013-05-30 04:52:00